TimeMDT,TemperatureF,Dew PointF,Humidity,Sea Level PressureIn,VisibilityMPH,Wind Direction,Wind SpeedMPH,Gust SpeedMPH,PrecipitationIn,Events,Conditions,WindDirDegrees,DateUTC
12:53 AM,51.1,34.0,52,29.89,10.0,East,10.4,-,N/A,,Clear,100,2012-09-25 06:53:00
1:53 AM,51.1,35.1,54,29.89,10.0,East,10.4,-,N/A,,Clear,90,2012-09-25 07:53:00
2:53 AM,53.1,37.0,55,29.87,10.0,ESE,10.4,-,N/A,,Clear,110,2012-09-25 08:53:00
3:53 AM,48.9,36.0,61,29.87,10.0,ESE,9.2,-,N/A,,Clear,110,2012-09-25 09:53:00
4:53 AM,48.9,36.0,61,29.87,10.0,East,10.4,-,N/A,,Clear,90,2012-09-25 10:53:00
5:53 AM,48.9,37.0,64,29.88,10.0,East,10.4,-,N/A,,Clear,80,2012-09-25 11:53:00
6:53 AM,46.9,36.0,66,29.89,10.0,East,10.4,-,N/A,,Clear,90,2012-09-25 12:53:00
7:53 AM,50.0,37.0,61,29.91,10.0,ESE,9.2,-,N/A,,Clear,110,2012-09-25 13:53:00
8:53 AM,55.9,37.9,51,29.91,10.0,ESE,13.8,-,N/A,,Clear,120,2012-09-25 14:53:00
9:53 AM,61.0,39.0,44,29.91,10.0,ESE,12.7,-,N/A,,Clear,110,2012-09-25 15:53:00
10:53 AM,66.9,39.0,36,29.91,10.0,ESE,10.4,-,N/A,,Clear,120,2012-09-25 16:53:00
11:53 AM,72.0,37.9,29,29.90,10.0,ESE,9.2,-,N/A,,Clear,120,2012-09-25 17:53:00
12:53 PM,75.2,37.4,25,29.89,10.0,ESE,10.4,-,N/A,,Clear,120,2012-09-25 18:53:00
1:53 PM,79.0,35.1,20,29.87,10.0,SSE,10.4,-,N/A,,Clear,150,2012-09-25 19:53:00
2:53 PM,80.1,33.1,18,29.85,10.0,SSE,5.8,-,N/A,,Clear,160,2012-09-25 20:53:00
3:53 PM,81.0,30.9,16,29.85,10.0,SSW,5.8,-,N/A,,Clear,210,2012-09-25 21:53:00
4:53 PM,81.0,30.0,16,29.85,10.0,SE,5.8,-,N/A,,Clear,130,2012-09-25 22:53:00
5:53 PM,78.8,30.2,17,29.87,10.0,ESE,5.8,-,N/A,,Partly Cloudy,110,2012-09-25 23:53:00
6:53 PM,68.0,30.0,24,29.88,10.0,East,6.9,-,N/A,,Clear,100,2012-09-26 00:53:00
7:53 PM,63.0,28.9,28,29.90,10.0,East,10.4,-,N/A,,Clear,100,2012-09-26 01:53:00
8:53 PM,64.4,39.2,40,29.90,10.0,East,12.7,-,N/A,,Clear,100,2012-09-26 02:53:00
9:53 PM,64.0,39.9,41,29.91,10.0,East,15.0,-,N/A,,Clear,100,2012-09-26 03:53:00
10:53 PM,61.0,39.9,46,29.91,10.0,East,13.8,-,N/A,,Clear,100,2012-09-26 04:53:00